GW2897 Weather Reports


time (UTC)temp
C
wind
direction
speed
KPH
gust
KPH
rain 1hr
cm
rain 24hr
cm
rain mn
cm
humidity
%
barometer
mb
20260906082700 21 102 0.0 1.6 0.00 0.41 0.00 98 1010.8
20260906081800 21 0 0.0 0.0 0.00 0.41 0.00 98 1010.7
20260906080900 21 0 0.0 0.0 0.00 0.41 0.00 98 1010.7
20260906080000 21 0 0.0 0.0 0.00 0.41 0.00 98 1010.6
20260906075401 21 0 0.0 0.0 0.00 0.41 0.00 98 1010.6
20260906074500 21 0 0.0 0.0 0.00 0.41 0.00 98 1010.6
20260906073600 21 0 0.0 0.0 0.00 0.41 0.00 98 1010.6
20260906072700 22 0 0.0 0.0 0.00 0.41 0.00 98 1010.4
20260906071821 22 0 0.0 0.0 0.00 0.41 0.00 98 1010.3
20260906070921 22 0 0.0 0.0 0.00 0.41 0.00 98 1010.5
20260906070000 22 0 0.0 0.0 0.00 0.41 0.00 98 1010.6
20260906065400 22 0 0.0 0.0 0.00 0.41 0.00 98 1010.7
20260906064500 22 0 0.0 0.0 0.00 0.41 0.00 98 1010.9
20260906063600 22 0 0.0 0.0 0.00 0.41 0.00 98 1010.9
20260906062700 22 0 0.0 0.0 0.00 0.41 0.00 98 1011.1
20260906061800 22 0 0.0 0.0 0.00 0.41 0.00 98 1011.2
20260906060900 22 298 0.0 1.6 0.00 0.41 0.00 98 1011.5
20260906060000 22 79 0.0 1.6 0.00 0.41 0.00 98 1011.6
20260906055400 22 105 0.0 1.6 0.00 0.41 0.00 98 1011.7
20260906054500 22 0 0.0 0.0 0.00 0.41 0.00 98 1011.7
20260906053621 22 0 0.0 0.0 0.00 0.41 0.00 98 1011.8
20260906052700 22 0 0.0 0.0 0.00 0.41 0.00 97 1012.0
20260906051800 22 0 0.0 0.0 0.00 0.41 0.00 97 1012.1
20260906050921 22 118 0.0 1.6 0.00 0.41 0.00 97 1012.1
20260906050001 22 121 0.0 1.6 0.00 0.41 0.00 97 1012.1
20260906045401 22 119 0.0 3.2 0.00 0.41 0.00 97 1012.1
20260906044522 22 97 1.6 3.2 0.00 0.41 0.00 97 1012.1
20260906043600 22 106 0.0 1.6 0.00 0.41 0.00 97 1012.2
20260906042701 22 80 0.0 3.2 0.00 0.41 0.00 97 1012.2
20260906041821 22 86 0.0 3.2 0.00 0.41 0.00 98 1012.1
20260906040900 22 119 0.0 1.6 0.00 0.41 0.00 97 1012.1
20260906040001 22 118 0.0 1.6 0.00 0.41 0.00 97 1012.1
20260906035422 22 118 0.0 1.6 0.00 0.41 0.41 97 1012.0
20260906034501 22 118 0.0 1.6 0.00 0.41 0.41 97 1012.1
20260906033601 22 118 0.0 1.6 0.00 0.41 0.41 97 1012.1
20260906032701 22 0 0.0 0.0 0.00 0.41 0.41 97 1012.1
20260906031801 22 0 0.0 0.0 0.00 0.41 0.41 97 1012.1
20260906030901 22 0 0.0 0.0 0.00 0.41 0.41 97 1012.2
20260906030001 22 118 0.0 1.6 0.00 0.41 0.41 97 1012.1
20260906025401 22 119 0.0 3.2 0.00 0.41 0.41 97 1012.1
20260906024501 22 0 0.0 0.0 0.00 0.41 0.41 97 1012.2
20260906023622 22 0 0.0 0.0 0.00 0.41 0.41 97 1012.1
20260906022701 22 242 0.0 1.6 0.00 0.41 0.41 97 1012.3
20260906021801 22 242 0.0 1.6 0.00 0.41 0.41 97 1012.1
20260906020901 22 242 0.0 1.6 0.00 0.41 0.41 97 1012.3
20260906020001 22 242 0.0 1.6 0.00 0.41 0.41 97 1012.0
20260906015401 22 242 0.0 1.6 0.00 0.41 0.41 97 1012.0
20260906014501 23 242 0.0 1.6 0.00 0.41 0.41 96 1011.9
20260906013601 23 0 0.0 0.0 0.00 0.41 0.41 96 1011.7
20260906012701 23 259 0.0 1.6 0.00 0.41 0.41 96 1011.7
20260906011801 23 136 0.0 1.6 0.00 0.41 0.41 96 1011.6
20260906010901 23 123 0.0 3.2 0.00 0.41 0.41 96 1011.5
20260906010001 23 3 3.2 8.0 0.00 0.41 0.41 96 1011.3
20260906005401 23 319 1.6 6.4 0.00 0.41 0.41 96 1011.1
20260906004501 23 339 0.0 1.6 0.00 0.41 0.41 96 1011.3
20260906003601 23 22 0.0 1.6 0.00 0.41 0.41 95 1011.2
20260906002701 23 116 0.0 1.6 0.00 0.41 0.41 95 1011.2
20260906001801 23 118 0.0 1.6 0.00 0.41 0.41 95 1011.3
20260906000901 24 0 0.0 0.0 0.00 0.41 0.41 95 1011.3
20260906000001 24 0 0.0 0.0 0.00 0.41 0.41 95 1011.1
20260905235422 24 0 0.0 0.0 0.00 0.41 0.41 95 1011.1
20260905234501 25 0 0.0 0.0 0.00 0.41 0.41 95 1011.2
20260905233601 25 115 0.0 4.8 0.00 0.41 0.41 95 1011.2
20260905232701 25 162 0.0 3.2 0.00 0.41 0.41 95 1011.1
20260905231801 25 119 0.0 1.6 0.00 0.41 0.41 95 1010.9
20260905230902 25 123 1.6 4.8 0.00 0.41 0.41 95 1011.1
20260905230001 25 283 0.0 3.2 0.00 0.41 0.41 95 1011.3
20260905225401 25 149 0.0 4.8 0.00 0.41 0.41 94 1011.2
20260905224501 25 127 1.6 4.8 0.00 0.41 0.41 95 1011.3
20260905223623 25 123 1.6 8.0 0.00 0.41 0.41 95 1011.4
20260905222703 25 91 0.0 3.2 0.00 0.41 0.41 96 1011.2
20260905221801 25 349 0.0 1.6 0.00 0.41 0.41 96 1011.2
20260905220902 25 350 0.0 1.6 0.00 0.41 0.41 95 1011.1
20260905220023 25 356 0.0 4.8 0.03 0.41 0.41 96 1010.8
20260905215402 25 344 1.6 4.8 0.05 0.41 0.41 95 1010.7
20260905214502 25 74 0.0 3.2 0.28 0.41 0.41 95 1011.2
20260905213601 24 103 0.0 3.2 0.38 0.41 0.41 95 1011.1
20260905212701 24 145 0.0 1.6 0.41 0.41 0.41 94 1011.1
20260905211802 24 199 0.0 1.6 0.41 0.41 0.41 93 1010.9
20260905210902 24 233 1.6 11.3 0.41 0.41 0.41 92 1011.0
20260905210002 24 280 6.4 16.1 0.38 0.38 0.38 90 1011.4
20260905205402 25 284 11.3 22.5 0.36 0.36 0.36 90 1011.6
20260905204501 26 277 19.3 35.4 0.13 0.13 0.13 88 1011.8
20260905203603 31 280 8.0 35.4 0.03 0.03 0.03 75 1011.2
20260905202702 35 309 1.6 8.0 0.00 0.00 0.00 56 1009.9
20260905201802 36 340 0.0 4.8 0.00 0.00 0.00 58 1009.8
20260905200902 37 285 0.0 1.6 0.00 0.00 0.00 54 1009.8
20260905200002 37 115 1.6 3.2 0.00 0.00 0.00 53 1009.9
20260905195402 37 121 1.6 3.2 0.00 0.00 0.00 55 1010.0
20260905194502 36 62 1.6 6.4 0.00 0.00 0.00 54 1010.2
20260905193605 36 292 4.8 17.7 0.00 0.00 0.00 57 1010.1
20260905192702 36 233 6.4 19.3 0.00 0.00 0.00 56 1010.0
20260905191802 37 119 3.2 11.3 0.00 0.00 0.00 53 1010.3
20260905190902 36 94 3.2 6.4 0.00 0.00 0.00 57 1010.2
20260905190002 36 113 3.2 11.3 0.00 0.00 0.00 56 1010.4
20260905185402 36 301 3.2 11.3 0.00 0.00 0.00 55 1010.4
20260905184502 36 270 3.2 8.0 0.00 0.00 0.00 55 1010.5
20260905183602 37 115 3.2 11.3 0.00 0.00 0.00 54 1010.8
20260905182702 36 128 4.8 14.5 0.00 0.00 0.00 57 1010.8
20260905181823 36 168 4.8 14.5 0.00 0.00 0.00 55 1011.1
20260905180902 36 295 6.4 14.5 0.00 0.00 0.00 57 1011.3
20260905180002 36 149 4.8 16.1 0.00 0.00 0.00 58 1011.6
20260905175402 36 124 4.8 14.5 0.00 0.00 0.00 58 1011.6
20260905174502 35 286 6.4 19.3 0.00 0.00 0.00 59 1011.8
20260905173602 35 243 4.8 20.9 0.00 0.00 0.00 59 1011.8
20260905172702 35 281 4.8 12.9 0.00 0.00 0.00 60 1011.9
20260905171802 35 197 3.2 8.0 0.00 0.00 0.00 59 1012.1
20260905170923 35 176 4.8 11.3 0.00 0.00 0.00 61 1012.3
20260905170003 35 257 4.8 14.5 0.00 0.00 0.00 62 1012.4
20260905165402 35 271 3.2 11.3 0.00 0.00 0.00 60 1012.4
20260905164502 34 228 4.8 12.9 0.00 0.00 0.00 63 1012.7
20260905163602 34 263 3.2 11.3 0.00 0.00 0.00 63 1012.9
20260905162702 33 275 4.8 14.5 0.00 0.00 0.00 66 1013.1
20260905161803 33 265 3.2 11.3 0.00 0.00 0.00 65 1013.1
20260905160902 33 251 3.2 12.9 0.00 0.00 0.00 68 1013.2
20260905160002 33 255 4.8 12.9 0.00 0.00 0.00 69 1013.2
20260905155423 33 276 6.4 12.9 0.00 0.00 0.00 70 1013.1
20260905154502 33 217 4.8 9.7 0.00 0.00 0.00 71 1013.3
20260905153602 32 262 3.2 9.7 0.00 0.00 0.00 73 1013.3
20260905152702 32 287 4.8 12.9 0.00 0.00 0.00 74 1013.5
20260905151802 31 262 4.8 11.3 0.00 0.00 0.00 74 1013.5
20260905150903 31 275 3.2 12.9 0.00 0.00 0.00 74 1013.7
20260905150003 31 282 4.8 12.9 0.00 0.00 0.00 75 1013.8
20260905145402 31 248 4.8 12.9 0.00 0.00 0.00 76 1013.7
20260905144503 30 256 3.2 11.3 0.00 0.00 0.00 78 1013.9
20260905143624 30 244 3.2 8.0 0.00 0.00 0.00 80 1013.9
20260905142724 30 272 4.8 12.9 0.00 0.00 0.00 81 1013.9
20260905141803 30 275 3.2 11.3 0.00 0.00 0.00 82 1013.9
20260905140903 28 259 3.2 11.3 0.00 0.00 0.00 83 1014.0
20260905140003 28 266 1.6 8.0 0.00 0.00 0.00 84 1014.0
20260905135423 28 263 3.2 8.0 0.00 0.00 0.00 85 1013.9
20260905134503 27 229 3.2 9.7 0.00 0.00 0.00 86 1013.9
20260905133603 27 240 3.2 9.7 0.00 0.00 0.00 86 1014.0
20260905132702 27 242 3.2 8.0 0.00 0.00 0.00 88 1014.0
20260905131803 26 269 3.2 9.7 0.00 0.00 0.00 89 1014.0
20260905130903 26 253 1.6 8.0 0.00 0.00 0.00 90 1014.2
20260905130003 26 266 3.2 8.0 0.00 0.00 0.00 90 1014.2
20260905125403 26 281 3.2 9.7 0.00 0.00 0.00 91 1014.2
20260905124503 25 283 3.2 9.7 0.00 0.00 0.00 92 1014.1
20260905123603 25 252 1.6 6.4 0.00 0.00 0.00 92 1014.0
20260905122703 25 247 3.2 9.7 0.00 0.00 0.00 93 1014.0
20260905121824 24 263 1.6 8.0 0.00 0.00 0.00 94 1014.1
20260905120903 24 257 0.0 3.2 0.00 0.00 0.00 95 1014.0
20260905120003 24 268 1.6 8.0 0.00 0.00 0.00 95 1013.9
20260905115403 23 261 1.6 8.0 0.00 0.00 0.00 96 1013.8
20260905114503 23 274 1.6 6.4 0.00 0.00 0.00 96 1013.8
20260905113603 23 284 0.0 3.2 0.00 0.00 0.00 96 1013.8
20260905112703 23 320 0.0 1.6 0.00 0.00 0.00 96 1013.7
20260905111803 23 269 0.0 3.2 0.00 0.00 0.00 96 1013.6
20260905110903 23 300 0.0 3.2 0.00 0.00 0.00 95 1013.5
20260905110003 23 281 0.0 3.2 0.00 0.00 0.00 95 1013.3
20260905105403 23 265 0.0 3.2 0.00 0.00 0.00 95 1013.4
20260905104503 23 258 1.6 3.2 0.00 0.00 0.00 95 1013.3
20260905103603 23 273 1.6 4.8 0.00 0.00 0.00 95 1013.3
20260905102703 23 281 1.6 4.8 0.00 0.00 0.00 95 1013.1
20260905101803 23 261 0.0 3.2 0.00 0.00 0.00 95 1013.0
20260905100903 23 262 0.0 3.2 0.00 0.00 0.00 95 1013.0
20260905095959 23 254 0.0 1.6 0.00 0.00 0.00 95 1013.0
20260905095359 23 258 0.0 1.6 0.00 0.00 0.00 95 1013.0
20260905094459 23 276 0.0 1.6 0.00 0.00 0.00 95 1013.0
20260905093559 23 284 0.0 1.6 0.00 0.00 0.00 95 1013.1
20260905092659 23 262 0.0 1.6 0.00 0.00 0.00 95 1013.0
20260905091759 23 285 0.0 3.2 0.00 0.00 0.00 95 1013.1
20260905090920 24 285 0.0 1.6 0.00 0.00 0.00 95 1013.1
20260905085959 24 247 0.0 3.2 0.00 0.00 0.00 94 1013.2
20260905085420 24 248 0.0 3.2 0.00 0.00 0.00 95 1013.2
20260905084459 24 264 0.0 3.2 0.00 0.00 0.00 94 1013.1
20260905083559 24 220 0.0 1.6 0.00 0.00 0.00 94 1013.1